RH
17 17 18 18 18 18 17 16 16 15 14 13 13 13 13 13 13 13 14 15 16 17 16 14 13 12 11 20 20 14 18 19 15 17 19 17 13 12 13 13 14 16 19 21 25 30 32 37 42 49 64 75
18 19 19 19 19 18 18 17 16 15 14 14 14 14 14 14 14 14 15 16 18 18 18 18 17 16 17 24 23 18 20 21 20 22 24 21 15 14 15 16 16 18 20 22 25 30 32 35 42 57 72 76
19 19 19 19 19 19 19 18 16 15 15 15 15 15 15 15 15 15 16 16 17 19 20 20 20 21 23 26 26 24 24 26 26 25 26 24 20 19 19 18 19 21 23 24 27 31 33 35 40 52 63 67
19 19 20 20 20 20 19 17 16 15 16 16 16 17 16 16 16 16 16 16 17 19 20 21 23 25 27 28 28 28 28 29 29 28 29 27 25 23 22 22 23 25 26 28 30 32 34 36 39 45 52 54
21 22 22 22 23 23 21 18 17 17 17 16 17 17 17 17 17 17 17 17 17 19 22 24 27 29 29 30 29 30 30 31 31 31 31 30 29 28 28 29 29 29 29 31 32 34 35 36 39 42 45 46
25 25 25 26 26 25 23 20 20 20 19 19 18 19 18 18 18 19 19 19 18 20 25 28 30 31 31 31 31 32 32 32 33 33 33 33 33 33 34 34 35 36 36 35 37 38 38 38 37 37 40 47
28 27 27 27 27 25 23 22 22 21 21 21 20 20 20 20 20 21 21 21 21 23 27 30 32 33 33 33 33 34 34 33 34 35 35 35 35 36 36 36 37 40 41 41 41 41 41 41 40 38 39 44
29 29 28 27 26 24 23 23 23 22 21 21 21 21 21 20 21 23 23 23 24 25 27 30 33 35 35 35 35 35 35 35 35 36 35 35 36 37 38 37 37 39 42 42 42 42 42 42 41 40 39 41
30 30 29 27 26 25 24 23 22 22 22 22 22 22 22 21 22 24 24 25 28 29 31 33 34 36 36 37 37 36 36 36 36 37 36 36 36 37 38 39 38 39 40 41 41 42 43 43 42 42 41 40
32 31 29 28 26 25 24 23 22 22 22 23 22 23 22 22 23 23 23 25 30 34 35 37 38 38 39 38 39 38 39 39 39 38 37 37 37 37 37 38 39 38 39 39 40 41 42 42 43 44 43 43
33 31 29 28 26 25 24 24 24 24 24 24 24 24 23 23 23 23 22 24 29 33 37 40 40 40 40 40 40 40 40 40 40 40 39 39 38 37 37 37 38 38 39 39 39 40 40 41 42 43 44 47
32 31 29 27 26 25 25 25 25 25 25 25 25 25 25 24 23 23 23 23 25 29 35 39 41 41 41 41 41 41 42 42 42 42 41 41 39 38 38 37 37 37 38 39 39 40 40 41 41 42 43 45
30 28 26 25 25 25 25 26 26 26 26 26 26 26 25 25 24 24 24 24 24 26 28 33 39 42 42 42 42 42 43 43 43 43 43 42 42 40 39 38 38 38 38 38 38 39 40 41 42 42 43 45
28 25 24 24 24 25 25 26 26 27 26 26 26 26 26 25 25 25 25 25 25 26 28 32 38 41 41 42 43 44 44 44 44 44 44 44 43 43 41 40 39 38 38 39 39 40 40 41 42 42 43 45
25 23 23 24 24 25 26 26 26 26 26 26 26 26 26 25 25 25 24 25 24 25 28 31 34 38 40 39 39 43 44 44 45 45 45 45 44 44 43 42 42 40 40 40 40 40 41 42 42 43 43 44
24 24 24 25 25 26 25 26 26 26 26 25 25 25 24 24 24 23 23 23 23 23 24 26 28 32 37 38 37 40 43 45 46 45 46 46 46 45 45 44 44 43 42 43 42 42 42 42 43 44 44 44
25 26 26 26 26 26 26 26 26 25 25 24 24 23 22 22 21 21 21 21 21 21 22 23 24 25 29 33 35 37 40 44 45 45 45 45 44 45 46 45 45 45 44 45 46 46 45 44 44 44 44 45
27 28 27 26 26 26 26 26 25 24 23 22 22 21 20 20 20 20 20 20 20 20 21 22 23 24 25 27 30 32 35 39 41 43 44 44 44 45 45 45 45 45 45 46 47 48 48 48 48 47 46 46
29 28 27 27 26 26 25 24 24 22 22 21 20 20 20 19 19 19 19 20 20 20 21 22 23 25 26 26 27 28 30 32 35 37 38 39 41 43 44 44 44 45 45 46 46 47 48 49 49 50 49 49
29 28 28 28 26 25 24 23 23 22 22 22 22 22 22 22 22 23 23 23 23 23 24 24 25 26 27 28 28 29 29 30 31 31 31 31 33 34 36 39 42 43 43 43 44 44 45 46 47 47 47 48
30 31 30 29 28 26 25 25 24 24 24 25 26 26 27 28 29 29 28 28 28 27 27 27 27 28 28 29 29 30 31 30 30 30 29 29 29 28 28 31 36 39 40 41 41 41 41 42 42 42 42 43
31 33 33 32 32 31 31 31 30 29 29 30 30 31 33 34 35 35 34 33 31 30 29 28 29 29 29 29 30 30 30 30 30 30 29 29 28 27 26 28 31 34 37 40 41 40 40 39 39 38 38 38
34 35 36 37 37 37 37 37 38 37 36 36 35 36 38 39 40 41 40 38 36 33 31 30 30 30 30 30 30 30 30 30 30 30 30 30 29 28 28 29 29 30 34 39 41 41 40 40 40 39 38 37
37 39 40 41 41 41 41 42 43 43 43 43 43 43 43 44 44 45 45 44 41 37 34 33 32 31 31 31 31 31 31 30 30 30 30 30 30 29 30 30 30 30 31 35 38 40 40 40 39 39 39 38
40 42 43 43 44 44 45 46 47 47 49 51 51 51 50 50 49 49 49 48 47 44 40 36 34 33 33 32 32 32 32 32 32 32 32 32 30 30 30 30 30 30 32 34 37 37 37 38 37 38 40 37
41 44 45 45 46 47 49 50 51 52 55 57 57 58 57 55 54 53 52 51 51 49 47 42 38 37 35 34 34 34 34 34 34 35 34 33 32 30 28 29 29 29 30 32 33 35 34 36 36 36 39 35
40 43 45 47 48 51 53 55 56 59 61 63 63 63 62 61 60 58 56 55 53 52 51 49 45 42 40 38 37 37 37 37 37 37 37 36 34 32 30 30 30 29 29 28 30 33 34 37 37 35 37 33
39 42 45 47 50 53 55 57 61 64 66 66 66 65 64 64 64 63 61 59 57 55 54 52 49 47 44 43 41 40 40 40 40 40 40 40 39 38 35 34 32 31 31 30 29 31 32 36 36 34 34 31
39 42 45 47 52 54 54 57 61 64 67 67 67 66 65 65 66 65 64 62 61 60 58 55 52 49 47 45 44 44 43 42 43 43 43 43 42 42 40 39 38 37 36 34 33 33 32 35 36 34 34 32
39 41 44 48 53 54 54 56 59 62 65 67 68 67 66 66 66 66 64 63 61 60 59 57 54 51 48 45 44 44 45 44 45 44 44 44 44 44 44 43 43 42 42 40 40 40 38 39 39 38 38 37
40 41 43 48 52 53 55 56 58 61 64 65 67 67 65 64 64 64 63 61 59 59 58 57 55 53 50 46 45 44 45 45 45 45 44 44 45 45 45 45 44 43 43 43 43 43 43 44 44 42 41 40